This demonstration page uses our WeatherBlox Daily Observations layout. Learn more.

Left ArrowRight Arrow

Hourly Observations for February 27, 2015

Temp ( °F °C ) Dew Point ( °F °C ) Humidity (%) Winds ( mph kmh ) Pressure ( in mb ) Visibility ( mi km ) Precip ( " mm )
12:53 am 00:53 Cloudy 29 -1.7 15 -9.4 56 56 ESE 12 19 30.23 1024 10 16 0.00 0.00
1:53 am 01:53 Cloudy 29 -1.7 14 -10 54 54 E 12 19 30.23 1024 10 16 0.00 0.00
2:53 am 02:53 Cloudy 26 -3.3 18 -7.8 71 71 ENE 14 22 30.22 1024 10 16 0.00 0.00
3:53 am 03:53 Cloudy 25 -3.9 17 -8.3 72 72 E 14 22 30.23 1024 10 16 0.00 0.00
4:37 am 04:37 Cloudy 25 -3.9 18 -7.8 75 75 ENE 14 22 30.36 1028 10 16 0.00 0.00
4:53 am 04:53 Cloudy 24 -4.4 17 -8.3 75 75 E 16 26 30.22 1023 10 16 0.00 0.00
5:13 am 05:13 Cloudy with Haze 24 -4.4 19 -7.2 81 81 ENE 15 24 30.36 1028 5 8 0.00 0.00
5:44 am 05:44 Cloudy with Mist and Fog 23 -5 19 -7 86 86 E 12 19 30.36 1028 6 10 0.00 0.00
5:53 am 05:53 Cloudy with Haze 23 -5 18 -7.8 81 81 ENE 15 24 30.25 1024 4 6 0.00 0.00
6:53 am 06:53 Cloudy with Haze 23 -5 18 -7.8 81 81 ENE 14 22 30.25 1024 6 10 0.00 0.00
7:14 am 07:14 Cloudy with Haze 23 -5 18 -8 80 80 ENE 12 19 30.39 1029 5 8 0.00 0.00
7:26 am 07:26 Cloudy with Haze 23 -5 18 -7.8 81 81 ENE 13 20 30.39 1029 5 8 0.00 0.00
7:53 am 07:53 Cloudy with Mist and Fog 22 -5.6 18 -7.8 85 85 ENE 13 20 30.29 1026 3 5 0.00 0.00
8:53 am 08:53 Cloudy with Mist and Fog 21 -6.1 17 -8.3 85 85 ENE 17 28 30.31 1026 4 6 0.00 0.00
9:53 am 09:53 Cloudy with Haze 22 -5.6 17 -8.3 82 82 ENE 15 24 30.33 1027 6 10 0.00 0.00
10:53 am 10:53 Cloudy with Haze 22 -5.6 17 -8.3 82 82 ENE 14 22 30.32 1027 5 8 0.00 0.00
11:45 am 11:45 Cloudy 23 -5 17 -8.3 78 78 E 14 22 30.42 1030 10 16 0.00 0.00
11:53 am 11:53 Cloudy 23 -5 17 -8.3 78 78 ENE 14 22 30.32 1027 10 16 0.00 0.00
12:53 pm 12:53 Cloudy 25 -4 18 -8 74 74 E 13 20 30.39 1029 10 16 0.00 0.00
1:53 pm 13:53 Cloudy 25 -3.9 18 -7.8 75 75 ENE 12 19 30.26 1025 10 16 0.00 0.00
2:53 pm 14:53 Cloudy 25 -3.9 18 -7.8 75 75 E 13 20 30.24 1024 10 16 0.00 0.00
3:53 pm 15:53 Cloudy 26 -3.3 18 -7.8 71 71 E 10 17 30.22 1023 10 16 0.00 0.00
4:53 pm 16:53 Cloudy 26 -3.3 18 -7.8 71 71 E 10 17 30.22 1024 10 16 0.00 0.00
5:53 pm 17:53 Cloudy 25 -3.9 18 -7.8 75 75 E 13 20 30.22 1023 10 16 0.00 0.00
6:53 pm 18:53 Cloudy 24 -4.4 18 -7.8 77 77 E 13 20 30.22 1023 10 16 0.00 0.00
7:09 pm 19:09 Cloudy 24 -4.4 18 -7.8 77 77 E 14 22 30.36 1028 10 16 0.00 0.00
7:53 pm 19:53 Cloudy 24 -4.4 17 -8.3 75 75 E 12 19 30.23 1024 10 16 0.00 0.00
8:41 pm 20:41 Cloudy 23 -5 17 -8.3 78 78 E 14 22 30.36 1028 10 16 0.00 0.00
8:53 pm 20:53 Cloudy 23 -5 17 -8.3 78 78 E 13 20 30.25 1024 8 13 0.00 0.00
9:04 pm 21:04 Cloudy with Haze 23 -5 18 -8 80 80 E 14 22 30.36 1028 5 8 0.00 0.00
9:53 pm 21:53 Cloudy with Mist and Fog 22 -5.6 18 -7.8 85 85 E 13 20 30.26 1025 6 10 0.00 0.00
10:53 pm 22:53 Cloudy 23 -5 18 -7.8 81 81 ESE 13 20 30.25 1024 9 14 0.00 0.00
11:53 pm 23:53 Cloudy 22 -5.6 17 -8.3 82 82 E 14 22 30.24 1024 7 11 0.00 0.00

Powered by AerisWeather